Location: Unspecified
(0.0000°N, 0.0000°E)
Time: 19:16:41
(UTC+01:00)

Cosmos 1626 Rocket - Visible Passes

Search period start: 07 December 2016 00:00
Search period end: 17 December 2016 00:00
Orbit: 604 x 630 km, 82.5° (Epoch: 07 December)

Date Brightness Start Highest point End Pass type
(mag) Time Alt. Az. Time Alt. Az. Time Alt. Az.
07 Dec 4.1 19:49:23 10° SSE 19:53:27 37° E 19:55:54 20° NE visible
08 Dec 3.5 20:05:48 10° S 20:10:14 87° E 20:13:41 17° N visible
09 Dec 4.9 20:22:52 10° SSW 20:27:01 40° W 20:31:10 10° NNW visible
10 Dec 6.2 20:40:45 10° SW 20:43:48 18° W 20:46:51 10° NW visible
11 Dec 4.1 19:18:57 10° SSE 19:23:03 37° E 19:27:09 10° NNE visible
12 Dec 3.6 19:35:24 10° S 19:39:50 88° E 19:44:17 10° N visible
13 Dec 5.0 19:52:28 10° SSW 19:56:37 40° W 20:00:47 10° NNW visible
14 Dec 6.9 06:26:18 10° ENE 06:27:29 11° E 06:28:38 10° ESE visible
14 Dec 6.4 20:10:21 10° SW 20:13:24 18° W 20:16:27 10° NW visible
